User: anonymous   Login
Location: Gleizolles
(44.4833°N, 6.7667°E)
Time: 17:20:40
(UTC+00:00)
Language:

DOVE 4 - Orbit

View from above orbital plane
View from above orbital plane
View from above satellite
View from above satellite

Ground track
Ground track

The orbit data is extracted from the following two-line orbital elements,

1 39430U 13066Q   22334.12663725  .00001304  00000-0  23913-3 0  9990
2 39430  97.7963 231.7772 0146787 242.2259 116.4003 14.60674328480479
Epoch (UTC): 30 November 2022 03:02:21
Eccentricity: 0.0146787
inclination: 97.7963°
perigee height: 587 km
apogee height: 795 km
right ascension of ascending node: 231.7772°
argument of perigee: 242.2259°
revolutions per day: 14.60674328
mean anomaly at epoch: 116.4003°
orbit number at epoch: 48047

The dashed part of the orbit path shows where the satellite is in the earth's shadow,  

DLR